Time,TemperatureF,DewpointF,PressureIn,WindDirection,WindDirectionDegrees,WindSpeedMPH,WindSpeedGustMPH,Humidity,HourlyPrecipIn,Conditions,Clouds,dailyrainin,SoftwareType,DateUTC
2013-03-01 00:01:00,27.2,20.3,30.26,North,0,0.0,0.0,75,0.00,CLR,SKC,0.00,WeatherDisplay:10.37,2013-03-01 06:01:00,
2013-03-01 00:06:00,27.2,20.3,30.26,North,0,0.0,0.0,75,0.00,CLR,SKC,0.00,WeatherDisplay:10.37,2013-03-01 06:06:00,
2013-03-01 00:11:00,27.2,20.3,30.26,North,0,0.0,0.0,75,0.00,CLR,SKC,0.00,WeatherDisplay:10.37,2013-03-01 06:11:00,
2013-03-01 00:16:00,27.2,20.3,30.26,North,0,0.0,0.0,75,0.00,CLR,SKC,0.00,WeatherDisplay:10.37,2013-03-01 06:16:00,
2013-03-01 00:21:00,27.2,20.3,30.26,North,0,0.0,0.0,75,0.00,CLR,SKC,0.00,WeatherDisplay:10.37,2013-03-01 06:21:00,
2013-03-01 00:26:00,27.2,20.3,30.26,North,0,0.0,0.0,75,0.00,CLR,SKC,0.00,WeatherDisplay:10.37,2013-03-01 06:26:00,
2013-03-01 00:31:00,27.2,20.3,30.26,North,0,0.0,0.0,75,0.00,CLR,SKC,0.00,WeatherDisplay:10.37,2013-03-01 06:31:00,
2013-03-01 00:36:00,27.2,20.3,30.26,North,0,0.0,0.0,75,0.00,CLR,SKC,0.00,WeatherDisplay:10.37,2013-03-01 06:36:00,
2013-03-01 00:41:00,27.2,20.3,30.26,North,0,0.0,0.0,75,0.00,CLR,SKC,0.00,WeatherDisplay:10.37,2013-03-01 06:41:00,
2013-03-01 00:46:00,27.2,20.3,30.26,North,0,0.0,0.0,75,0.00,CLR,SKC,0.00,WeatherDisplay:10.37,2013-03-01 06:46:00,
2013-03-01 00:51:00,27.2,20.3,30.26,North,0,0.0,0.0,75,0.00,CLR,SKC,0.00,WeatherDisplay:10.37,2013-03-01 06:51:00,
2013-03-01 00:56:00,27.2,20.3,30.26,North,0,0.0,0.0,75,0.00,CLR,SKC,0.00,WeatherDisplay:10.37,2013-03-01 06:56:00,
2013-03-01 01:01:00,27.2,20.3,30.26,North,0,0.0,0.0,75,0.00,CLR,SKC,0.00,WeatherDisplay:10.37,2013-03-01 07:01:00,
2013-03-01 01:06:00,27.2,20.3,30.26,North,0,0.0,0.0,75,0.00,CLR,SKC,0.00,WeatherDisplay:10.37,2013-03-01 07:06:00,
2013-03-01 01:11:00,27.2,20.3,30.26,North,0,0.0,0.0,75,0.00,CLR,SKC,0.00,WeatherDisplay:10.37,2013-03-01 07:11:00,
2013-03-01 01:16:00,27.2,20.3,30.26,North,0,0.0,0.0,75,0.00,CLR,SKC,0.00,WeatherDisplay:10.37,2013-03-01 07:16:00,
2013-03-01 01:21:00,27.2,20.3,30.26,North,0,0.0,0.0,75,0.00,CLR,SKC,0.00,WeatherDisplay:10.37,2013-03-01 07:21:00,
2013-03-01 01:26:00,27.2,20.3,30.26,North,0,0.0,0.0,75,0.00,CLR,SKC,0.00,WeatherDisplay:10.37,2013-03-01 07:26:00,
2013-03-01 01:31:00,27.2,20.3,30.26,North,0,0.0,0.0,75,0.00,CLR,SKC,0.00,WeatherDisplay:10.37,2013-03-01 07:31:00,
2013-03-01 01:36:00,27.2,20.3,30.26,North,0,0.0,0.0,75,0.00,CLR,SKC,0.00,WeatherDisplay:10.37,2013-03-01 07:36:00,
2013-03-01 01:41:00,27.2,20.3,30.26,North,0,0.0,0.0,75,0.00,CLR,SKC,0.00,WeatherDisplay:10.37,2013-03-01 07:41:00,
2013-03-01 01:46:00,27.2,20.3,30.26,North,0,0.0,0.0,75,0.00,CLR,SKC,0.00,WeatherDisplay:10.37,2013-03-01 07:46:00,
2013-03-01 01:51:00,27.2,20.3,30.26,North,0,0.0,0.0,75,0.00,CLR,SKC,0.00,WeatherDisplay:10.37,2013-03-01 07:51:00,
2013-03-01 01:56:00,27.2,20.3,30.26,North,0,0.0,0.0,75,0.00,CLR,SKC,0.00,WeatherDisplay:10.37,2013-03-01 07:56:00,
2013-03-01 02:02:00,27.2,20.3,30.26,North,0,0.0,0.0,75,0.00,CLR,SKC,0.00,WeatherDisplay:10.37,2013-03-01 08:02:00,
2013-03-01 02:07:00,27.2,20.3,30.26,North,0,0.0,0.0,75,0.00,CLR,SKC,0.00,WeatherDisplay:10.37,2013-03-01 08:07:00,
2013-03-01 02:12:00,27.2,20.3,30.26,North,0,0.0,0.0,75,0.00,CLR,SKC,0.00,WeatherDisplay:10.37,2013-03-01 08:12:00,
2013-03-01 02:17:00,27.2,20.3,30.26,North,0,0.0,0.0,75,0.00,CLR,SKC,0.00,WeatherDisplay:10.37,2013-03-01 08:17:00,
2013-03-01 02:22:00,27.2,20.3,30.26,North,0,0.0,0.0,75,0.00,CLR,SKC,0.00,WeatherDisplay:10.37,2013-03-01 08:22:00,
2013-03-01 02:27:00,27.2,20.3,30.26,North,0,0.0,0.0,75,0.00,CLR,SKC,0.00,WeatherDisplay:10.37,2013-03-01 08:27:00,
2013-03-01 02:32:00,27.2,20.3,30.26,North,0,0.0,0.0,75,0.00,CLR,SKC,0.00,WeatherDisplay:10.37,2013-03-01 08:32:00,
2013-03-01 02:37:00,27.2,20.3,30.26,North,0,0.0,0.0,75,0.00,CLR,SKC,0.00,WeatherDisplay:10.37,2013-03-01 08:37:00,
2013-03-01 02:42:00,27.2,20.3,30.26,North,0,0.0,0.0,75,0.00,CLR,SKC,0.00,WeatherDisplay:10.37,2013-03-01 08:42:00,
2013-03-01 02:47:00,27.2,20.3,30.26,North,0,0.0,0.0,75,0.00,CLR,SKC,0.00,WeatherDisplay:10.37,2013-03-01 08:47:00,
2013-03-01 02:52:00,27.2,20.3,30.26,North,0,0.0,0.0,75,0.00,CLR,SKC,0.00,WeatherDisplay:10.37,2013-03-01 08:52:00,
2013-03-01 02:57:00,27.2,20.3,30.26,North,0,0.0,0.0,75,0.00,CLR,SKC,0.00,WeatherDisplay:10.37,2013-03-01 08:57:00,
2013-03-01 03:02:00,27.2,20.3,30.26,North,0,0.0,0.0,75,0.00,CLR,SKC,0.00,WeatherDisplay:10.37,2013-03-01 09:02:00,
2013-03-01 03:07:00,27.2,20.3,30.26,North,0,0.0,0.0,75,0.00,CLR,SKC,0.00,WeatherDisplay:10.37,2013-03-01 09:07:00,
2013-03-01 03:12:00,27.2,20.3,30.26,North,0,0.0,0.0,75,0.00,CLR,SKC,0.00,WeatherDisplay:10.37,2013-03-01 09:12:00,
2013-03-01 03:17:00,27.2,20.3,30.26,North,0,0.0,0.0,75,0.00,CLR,SKC,0.00,WeatherDisplay:10.37,2013-03-01 09:17:00,
2013-03-01 03:22:00,27.2,20.3,30.26,North,0,0.0,0.0,75,0.00,CLR,SKC,0.00,WeatherDisplay:10.37,2013-03-01 09:22:00,
2013-03-01 03:27:00,27.2,20.3,30.26,North,0,0.0,0.0,75,0.00,CLR,SKC,0.00,WeatherDisplay:10.37,2013-03-01 09:27:00,
2013-03-01 03:32:00,27.2,20.3,30.26,North,0,0.0,0.0,75,0.00,CLR,SKC,0.00,WeatherDisplay:10.37,2013-03-01 09:32:00,
2013-03-01 03:37:00,27.2,20.3,30.26,North,0,0.0,0.0,75,0.00,CLR,SKC,0.00,WeatherDisplay:10.37,2013-03-01 09:37:00,
2013-03-01 03:42:00,27.2,20.3,30.26,North,0,0.0,0.0,75,0.00,CLR,SKC,0.00,WeatherDisplay:10.37,2013-03-01 09:42:00,
2013-03-01 03:47:00,27.2,20.3,30.26,North,0,0.0,0.0,75,0.00,CLR,SKC,0.00,WeatherDisplay:10.37,2013-03-01 09:47:00,
2013-03-01 03:52:00,27.2,20.3,30.26,North,0,0.0,0.0,75,0.00,CLR,SKC,0.00,WeatherDisplay:10.37,2013-03-01 09:52:00,
2013-03-01 03:57:00,27.2,20.3,30.26,North,0,0.0,0.0,75,0.00,CLR,SKC,0.00,WeatherDisplay:10.37,2013-03-01 09:57:00,
2013-03-01 04:02:00,27.2,20.3,30.26,North,0,0.0,0.0,75,0.00,CLR,SKC,0.00,WeatherDisplay:10.37,2013-03-01 10:02:00,
2013-03-01 04:07:00,27.2,20.3,30.26,North,0,0.0,0.0,75,0.00,CLR,SKC,0.00,WeatherDisplay:10.37,2013-03-01 10:07:00,
2013-03-01 04:12:00,27.2,20.3,30.26,North,0,0.0,0.0,75,0.00,CLR,SKC,0.00,WeatherDisplay:10.37,2013-03-01 10:12:00,
2013-03-01 04:17:00,27.2,20.3,30.26,North,0,0.0,0.0,75,0.00,CLR,SKC,0.00,WeatherDisplay:10.37,2013-03-01 10:17:00,
2013-03-01 04:22:00,27.2,20.3,30.26,North,0,0.0,0.0,75,0.00,CLR,SKC,0.00,WeatherDisplay:10.37,2013-03-01 10:22:00,
2013-03-01 04:27:00,27.2,20.3,30.26,North,0,0.0,0.0,75,0.00,CLR,SKC,0.00,WeatherDisplay:10.37,2013-03-01 10:27:00,
2013-03-01 05:08:00,25.4,17.3,30.26,SSE,161,13.8,13.8,71,0.00,CLR,SKC,0.00,WeatherDisplay:10.37,2013-03-01 11:08:00,
2013-03-01 05:13:00,25.4,17.3,30.26,ESE,122,13.8,13.8,71,0.00,CLR,SKC,0.00,WeatherDisplay:10.37,2013-03-01 11:13:00,
2013-03-01 05:18:00,25.3,16.9,30.26,SE,139,17.0,17.0,70,0.00,CLR,SKC,0.00,WeatherDisplay:10.37,2013-03-01 11:18:00,
2013-03-01 05:23:00,25.3,16.9,30.26,SSE,154,17.3,17.3,70,0.00,CLR,SKC,0.00,WeatherDisplay:10.37,2013-03-01 11:23:00,
2013-03-01 05:28:00,25.3,16.9,30.26,SSE,168,13.8,13.8,70,0.00,CLR,SKC,0.00,WeatherDisplay:10.37,2013-03-01 11:28:00,
2013-03-01 05:33:00,25.3,16.9,30.26,SSE,147,15.0,15.0,70,0.00,CLR,SKC,0.00,WeatherDisplay:10.37,2013-03-01 11:33:00,
2013-03-01 05:38:00,25.1,16.7,30.26,ESE,122,18.4,18.4,70,0.00,CLR,SKC,0.00,WeatherDisplay:10.37,2013-03-01 11:38:00,
2013-03-01 05:43:00,25.1,16.7,30.26,SSE,156,18.0,18.0,70,0.00,CLR,SKC,0.00,WeatherDisplay:10.37,2013-03-01 11:43:00,
2013-03-01 05:48:00,25.0,16.3,30.26,SSE,163,9.5,10.0,69,0.00,CLR,SKC,0.00,WeatherDisplay:10.37,2013-03-01 11:48:00,
2013-03-01 05:53:00,25.0,16.3,30.27,SSE,163,9.5,10.0,69,0.00,CLR,SKC,0.00,WeatherDisplay:10.37,2013-03-01 11:53:00,
2013-03-01 05:58:00,25.0,16.3,30.25,North,7,9.2,9.2,69,0.00,CLR,SKC,0.00,WeatherDisplay:10.37,2013-03-01 11:58:00,
2013-03-01 06:10:00,25.0,16.3,30.26,NNW,338,0.0,0.0,69,0.00,CLR,SKC,0.00,WeatherDisplay:10.37,2013-03-01 12:10:00,
2013-03-01 06:20:00,25.0,16.3,30.26,NNW,329,0.0,0.0,69,0.00,CLR,SKC,0.00,WeatherDisplay:10.37,2013-03-01 12:20:00,
2013-03-01 06:31:00,25.0,16.3,30.26,North,0,0.0,0.0,69,0.00,CLR,SKC,0.00,WeatherDisplay:10.37,2013-03-01 12:31:00,
2013-03-01 06:50:00,25.0,16.3,30.26,NNW,346,0.0,0.0,69,0.00,CLR,SKC,0.00,WeatherDisplay:10.37,2013-03-01 12:50:00,
2013-03-01 07:10:00,25.0,16.3,30.19,NNW,338,0.0,0.0,69,0.00,CLR,SKC,0.00,WeatherDisplay:10.37,2013-03-01 13:10:00,
2013-03-01 07:20:00,25.0,16.3,30.19,North,0,0.0,0.0,69,0.00,CLR,SKC,0.00,WeatherDisplay:10.37,2013-03-01 13:20:00,
2013-03-01 07:30:00,25.0,16.3,30.19,North,354,0.0,0.0,69,0.00,CLR,SKC,0.00,WeatherDisplay:10.37,2013-03-01 13:30:00,
2013-03-01 07:40:00,25.0,16.3,30.20,NNW,346,0.0,0.0,69,0.00,CLR,SKC,0.00,WeatherDisplay:10.37,2013-03-01 13:40:00,
2013-03-01 07:50:00,25.0,16.3,30.21,North,0,0.0,0.0,69,0.00,CLR,SKC,0.00,WeatherDisplay:10.37,2013-03-01 13:50:00,
2013-03-01 08:10:00,25.0,16.3,30.21,North,354,0.0,0.0,69,0.00,CLR,SKC,0.00,WeatherDisplay:10.37,2013-03-01 14:10:00,
2013-03-01 08:20:00,24.4,17.9,30.31,SE,139,10.0,14.0,76,0.00,CLR,SKC,0.00,WeatherDisplay:10.37,2013-03-01 14:20:00,
2013-03-01 08:40:00,24.2,17.7,30.22,ESE,118,0.0,13.0,76,0.00,CLR,SKC,0.00,WeatherDisplay:10.37,2013-03-01 14:40:00,
2013-03-01 08:50:00,24.2,17.7,30.22,North,0,0.0,0.0,76,0.00,CLR,SKC,0.00,WeatherDisplay:10.37,2013-03-01 14:50:00,
2013-03-01 09:12:00,24.2,17.7,30.22,North,0,0.0,0.0,76,0.00,CLR,SKC,0.00,WeatherDisplay:10.37,2013-03-01 15:12:00,
2013-03-01 09:17:00,24.2,17.7,30.23,North,0,0.0,0.0,76,0.00,CLR,SKC,0.00,WeatherDisplay:10.37,2013-03-01 15:17:00,
2013-03-01 09:22:00,24.2,17.7,30.23,North,0,0.0,0.0,76,0.00,CLR,SKC,0.00,WeatherDisplay:10.37,2013-03-01 15:22:00,
2013-03-01 09:27:00,24.2,17.7,30.23,North,0,0.0,0.0,76,0.00,CLR,SKC,0.00,WeatherDisplay:10.37,2013-03-01 15:27:00,
2013-03-01 09:32:00,24.2,17.7,30.23,North,0,0.0,0.0,76,0.00,CLR,SKC,0.00,WeatherDisplay:10.37,2013-03-01 15:32:00,
2013-03-01 09:37:00,24.2,17.7,30.23,North,0,0.0,0.0,76,0.00,CLR,SKC,0.00,WeatherDisplay:10.37,2013-03-01 15:37:00,
2013-03-01 09:42:00,24.2,17.7,30.23,North,0,0.0,0.0,76,0.00,CLR,SKC,0.00,WeatherDisplay:10.37,2013-03-01 15:42:00,
2013-03-01 09:47:00,24.2,17.7,30.23,North,0,0.0,0.0,76,0.00,CLR,SKC,0.00,WeatherDisplay:10.37,2013-03-01 15:47:00,
2013-03-01 09:52:00,24.2,17.7,30.23,North,0,0.0,0.0,76,0.00,CLR,SKC,0.00,WeatherDisplay:10.37,2013-03-01 15:52:00,
2013-03-01 09:57:00,24.2,17.7,30.23,North,0,0.0,0.0,76,0.00,CLR,SKC,0.00,WeatherDisplay:10.37,2013-03-01 15:57:00,
2013-03-01 10:02:00,24.2,17.7,30.23,North,0,0.0,0.0,76,0.00,CLR,SKC,0.00,WeatherDisplay:10.37,2013-03-01 16:02:00,
2013-03-01 10:07:00,24.2,17.7,30.23,North,0,0.0,0.0,76,0.00,CLR,SKC,0.00,WeatherDisplay:10.37,2013-03-01 16:07:00,
2013-03-01 10:12:00,24.2,17.7,30.23,North,0,0.0,0.0,76,0.00,CLR,SKC,0.00,WeatherDisplay:10.37,2013-03-01 16:12:00,
2013-03-01 10:17:00,24.2,17.7,30.23,North,0,0.0,0.0,76,0.00,CLR,SKC,0.00,WeatherDisplay:10.37,2013-03-01 16:17:00,
2013-03-01 10:22:00,24.2,17.7,30.23,North,0,0.0,0.0,76,0.00,CLR,SKC,0.00,WeatherDisplay:10.37,2013-03-01 16:22:00,
2013-03-01 10:27:00,24.2,17.7,30.23,North,0,0.0,0.0,76,0.00,CLR,SKC,0.00,WeatherDisplay:10.37,2013-03-01 16:27:00,
2013-03-01 10:32:00,24.2,17.7,30.23,North,0,0.0,0.0,76,0.00,CLR,SKC,0.00,WeatherDisplay:10.37,2013-03-01 16:32:00,
2013-03-01 10:38:00,24.2,17.7,30.23,North,0,0.0,0.0,76,0.00,CLR,SKC,0.00,WeatherDisplay:10.37,2013-03-01 16:38:00,
2013-03-01 10:43:00,24.2,17.7,30.23,North,0,0.0,0.0,76,0.00,CLR,SKC,0.00,WeatherDisplay:10.37,2013-03-01 16:43:00,
2013-03-01 10:48:00,24.2,17.7,30.23,North,0,0.0,0.0,76,0.00,CLR,SKC,0.00,WeatherDisplay:10.37,2013-03-01 16:48:00,
2013-03-01 10:53:00,24.2,17.7,30.23,North,0,0.0,0.0,76,0.00,CLR,SKC,0.00,WeatherDisplay:10.37,2013-03-01 16:53:00,
2013-03-01 10:58:00,24.2,17.7,30.23,North,0,0.0,0.0,76,0.00,CLR,SKC,0.00,WeatherDisplay:10.37,2013-03-01 16:58:00,
2013-03-01 11:03:00,24.2,17.7,30.24,North,0,0.0,0.0,76,0.00,CLR,SKC,0.00,WeatherDisplay:10.37,2013-03-01 17:03:00,
2013-03-01 11:08:00,24.2,17.7,30.24,North,0,0.0,0.0,76,0.00,CLR,SKC,0.00,WeatherDisplay:10.37,2013-03-01 17:08:00,
2013-03-01 11:13:00,24.2,17.7,30.24,North,0,0.0,0.0,76,0.00,CLR,SKC,0.00,WeatherDisplay:10.37,2013-03-01 17:13:00,
2013-03-01 11:18:00,24.2,17.7,30.24,North,0,0.0,0.0,76,0.00,CLR,SKC,0.00,WeatherDisplay:10.37,2013-03-01 17:18:00,
2013-03-01 11:23:00,24.2,17.7,30.24,North,0,0.0,0.0,76,0.00,CLR,SKC,0.00,WeatherDisplay:10.37,2013-03-01 17:23:00,
2013-03-01 11:28:00,24.2,17.7,30.24,North,0,0.0,0.0,76,0.00,CLR,SKC,0.00,WeatherDisplay:10.37,2013-03-01 17:28:00,
2013-03-01 11:33:00,24.2,17.7,30.24,North,0,0.0,0.0,76,0.00,CLR,SKC,0.00,WeatherDisplay:10.37,2013-03-01 17:33:00,
2013-03-01 11:38:00,24.2,17.7,30.24,North,0,0.0,0.0,76,0.00,CLR,SKC,0.00,WeatherDisplay:10.37,2013-03-01 17:38:00,
2013-03-01 11:43:00,24.2,17.7,30.24,North,0,0.0,0.0,76,0.00,CLR,SKC,0.00,WeatherDisplay:10.37,2013-03-01 17:43:00,
2013-03-01 11:48:00,24.2,17.7,30.24,North,0,0.0,0.0,76,0.00,CLR,SKC,0.00,WeatherDisplay:10.37,2013-03-01 17:48:00,
2013-03-01 11:53:00,24.2,17.7,30.24,North,0,0.0,0.0,76,0.00,CLR,SKC,0.00,WeatherDisplay:10.37,2013-03-01 17:53:00,
2013-03-01 11:58:00,24.2,17.7,30.24,North,0,0.0,0.0,76,0.00,CLR,SKC,0.00,WeatherDisplay:10.37,2013-03-01 17:58:00,
2013-03-01 12:03:00,24.2,17.7,30.32,North,0,0.0,0.0,76,0.00,CLR,SKC,0.00,WeatherDisplay:10.37,2013-03-01 18:03:00,
2013-03-01 12:08:00,24.2,17.7,30.32,North,0,0.0,0.0,76,0.00,CLR,SKC,0.00,WeatherDisplay:10.37,2013-03-01 18:08:00,
2013-03-01 12:13:00,24.2,17.7,30.32,North,0,0.0,0.0,76,0.00,CLR,SKC,0.00,WeatherDisplay:10.37,2013-03-01 18:13:00,
2013-03-01 12:18:00,24.2,17.7,30.32,North,0,0.0,0.0,76,0.00,CLR,SKC,0.00,WeatherDisplay:10.37,2013-03-01 18:18:00,
2013-03-01 12:23:00,24.2,17.7,30.32,North,0,0.0,0.0,76,0.00,CLR,SKC,0.00,WeatherDisplay:10.37,2013-03-01 18:23:00,
2013-03-01 12:28:00,24.2,17.7,30.32,North,0,0.0,0.0,76,0.00,CLR,SKC,0.00,WeatherDisplay:10.37,2013-03-01 18:28:00,
2013-03-01 12:33:00,24.2,17.7,30.32,North,0,0.0,0.0,76,0.00,CLR,SKC,0.00,WeatherDisplay:10.37,2013-03-01 18:33:00,
2013-03-01 12:38:00,24.2,17.7,30.32,North,0,0.0,0.0,76,0.00,CLR,SKC,0.00,WeatherDisplay:10.37,2013-03-01 18:38:00,
2013-03-01 12:43:00,24.2,17.7,30.32,North,0,0.0,0.0,76,0.00,CLR,SKC,0.00,WeatherDisplay:10.37,2013-03-01 18:43:00,
2013-03-01 12:48:00,24.2,17.7,30.32,North,0,0.0,0.0,76,0.00,CLR,SKC,0.00,WeatherDisplay:10.37,2013-03-01 18:48:00,
2013-03-01 12:53:00,24.2,17.7,30.31,North,0,0.0,0.0,76,0.00,CLR,SKC,0.00,WeatherDisplay:10.37,2013-03-01 18:53:00,
2013-03-01 12:58:00,24.2,17.7,30.31,North,0,0.0,0.0,76,0.00,CLR,SKC,0.00,WeatherDisplay:10.37,2013-03-01 18:58:00,
2013-03-01 13:03:00,24.2,17.7,30.31,North,0,0.0,0.0,76,0.00,CLR,SKC,0.00,WeatherDisplay:10.37,2013-03-01 19:03:00,
2013-03-01 13:08:00,24.2,17.7,30.31,North,0,0.0,0.0,76,0.00,CLR,SKC,0.00,WeatherDisplay:10.37,2013-03-01 19:08:00,
2013-03-01 13:13:00,24.2,17.7,30.31,North,0,0.0,0.0,76,0.00,CLR,SKC,0.00,WeatherDisplay:10.37,2013-03-01 19:13:00,
2013-03-01 13:18:00,24.2,17.7,30.31,North,0,0.0,0.0,76,0.00,CLR,SKC,0.00,WeatherDisplay:10.37,2013-03-01 19:18:00,
2013-03-01 13:23:00,24.2,17.7,30.31,North,0,0.0,0.0,76,0.00,CLR,SKC,0.00,WeatherDisplay:10.37,2013-03-01 19:23:00,
2013-03-01 13:28:00,24.2,17.7,30.31,North,0,0.0,0.0,76,0.00,CLR,SKC,0.00,WeatherDisplay:10.37,2013-03-01 19:28:00,
2013-03-01 13:33:00,24.2,17.7,30.31,North,0,0.0,0.0,76,0.00,CLR,SKC,0.00,WeatherDisplay:10.37,2013-03-01 19:33:00,
2013-03-01 13:38:00,24.2,17.7,30.31,North,0,0.0,0.0,76,0.00,CLR,SKC,0.00,WeatherDisplay:10.37,2013-03-01 19:38:00,
2013-03-01 13:43:00,24.2,17.7,30.31,North,0,0.0,0.0,76,0.00,CLR,SKC,0.00,WeatherDisplay:10.37,2013-03-01 19:43:00,
2013-03-01 13:48:00,24.2,17.7,30.31,North,0,0.0,0.0,76,0.00,CLR,SKC,0.00,WeatherDisplay:10.37,2013-03-01 19:48:00,
2013-03-01 13:53:00,24.2,17.7,30.31,North,0,0.0,0.0,76,0.00,CLR,SKC,0.00,WeatherDisplay:10.37,2013-03-01 19:53:00,
2013-03-01 13:58:00,24.2,17.7,30.31,North,0,0.0,0.0,76,0.00,CLR,SKC,0.00,WeatherDisplay:10.37,2013-03-01 19:58:00,
2013-03-01 14:03:00,24.2,17.7,30.31,North,0,0.0,0.0,76,0.00,CLR,SKC,0.00,WeatherDisplay:10.37,2013-03-01 20:03:00,
2013-03-01 14:08:00,24.2,17.7,30.31,North,0,0.0,0.0,76,0.00,CLR,SKC,0.00,WeatherDisplay:10.37,2013-03-01 20:08:00,
2013-03-01 14:13:00,24.2,17.7,30.30,North,0,0.0,0.0,76,0.00,CLR,SKC,0.00,WeatherDisplay:10.37,2013-03-01 20:13:00,
2013-03-01 14:18:00,24.2,17.7,30.30,North,0,0.0,0.0,76,0.00,CLR,SKC,0.00,WeatherDisplay:10.37,2013-03-01 20:18:00,
2013-03-01 14:23:00,24.2,17.7,30.31,North,0,0.0,0.0,76,0.00,CLR,SKC,0.00,WeatherDisplay:10.37,2013-03-01 20:23:00,
2013-03-01 14:28:00,24.2,17.7,30.30,North,0,0.0,0.0,76,0.00,CLR,SKC,0.00,WeatherDisplay:10.37,2013-03-01 20:28:00,
2013-03-01 14:33:00,24.2,17.7,30.31,North,0,0.0,0.0,76,0.00,CLR,SKC,0.00,WeatherDisplay:10.37,2013-03-01 20:33:00,
2013-03-01 14:38:00,24.2,17.7,30.31,North,0,0.0,0.0,76,0.00,CLR,SKC,0.00,WeatherDisplay:10.37,2013-03-01 20:38:00,
2013-03-01 14:43:00,24.2,17.7,30.31,North,0,0.0,0.0,76,0.00,CLR,SKC,0.00,WeatherDisplay:10.37,2013-03-01 20:43:00,
2013-03-01 14:48:00,24.2,17.7,30.31,North,0,0.0,0.0,76,0.00,CLR,SKC,0.00,WeatherDisplay:10.37,2013-03-01 20:48:00,
2013-03-01 14:53:00,24.2,17.7,30.31,North,0,0.0,0.0,76,0.00,CLR,SKC,0.00,WeatherDisplay:10.37,2013-03-01 20:53:00,
2013-03-01 14:58:00,24.2,17.7,30.31,North,0,0.0,0.0,76,0.00,CLR,SKC,0.00,WeatherDisplay:10.37,2013-03-01 20:58:00,
2013-03-01 15:03:00,24.2,17.7,30.31,North,0,0.0,0.0,76,0.00,CLR,SKC,0.00,WeatherDisplay:10.37,2013-03-01 21:03:00,
2013-03-01 15:08:00,24.2,17.7,30.31,North,0,0.0,0.0,76,0.00,CLR,SKC,0.00,WeatherDisplay:10.37,2013-03-01 21:08:00,
2013-03-01 15:13:00,24.2,17.7,30.31,North,0,0.0,0.0,76,0.00,CLR,SKC,0.00,WeatherDisplay:10.37,2013-03-01 21:13:00,
2013-03-01 15:18:00,24.2,17.7,30.31,North,0,0.0,0.0,76,0.00,CLR,SKC,0.00,WeatherDisplay:10.37,2013-03-01 21:18:00,
2013-03-01 15:23:00,24.2,17.7,30.31,North,0,0.0,0.0,76,0.00,CLR,SKC,0.00,WeatherDisplay:10.37,2013-03-01 21:23:00,
2013-03-01 15:28:00,24.2,17.7,30.31,North,0,0.0,0.0,76,0.00,CLR,SKC,0.00,WeatherDisplay:10.37,2013-03-01 21:28:00,
2013-03-01 15:33:00,24.2,17.7,30.31,North,0,0.0,0.0,76,0.00,CLR,SKC,0.00,WeatherDisplay:10.37,2013-03-01 21:33:00,
2013-03-01 15:38:00,24.2,17.7,30.31,North,0,0.0,0.0,76,0.00,CLR,SKC,0.00,WeatherDisplay:10.37,2013-03-01 21:38:00,
2013-03-01 15:44:00,24.2,17.7,30.31,North,0,0.0,0.0,76,0.00,CLR,SKC,0.00,WeatherDisplay:10.37,2013-03-01 21:44:00,
2013-03-01 15:49:00,24.2,17.7,30.31,North,0,0.0,0.0,76,0.00,CLR,SKC,0.00,WeatherDisplay:10.37,2013-03-01 21:49:00,
2013-03-01 15:54:00,24.2,17.7,30.32,North,0,0.0,0.0,76,0.00,CLR,SKC,0.00,WeatherDisplay:10.37,2013-03-01 21:54:00,
2013-03-01 15:59:00,24.2,17.7,30.32,North,0,0.0,0.0,76,0.00,CLR,SKC,0.00,WeatherDisplay:10.37,2013-03-01 21:59:00,
2013-03-01 16:04:00,24.2,17.7,30.32,North,0,0.0,0.0,76,0.00,CLR,SKC,0.00,WeatherDisplay:10.37,2013-03-01 22:04:00,
2013-03-01 16:09:00,24.2,17.7,30.32,North,0,0.0,0.0,76,0.00,CLR,SKC,0.00,WeatherDisplay:10.37,2013-03-01 22:09:00,
2013-03-01 16:14:00,24.2,17.7,30.32,North,0,0.0,0.0,76,0.00,CLR,SKC,0.00,WeatherDisplay:10.37,2013-03-01 22:14:00,
2013-03-01 16:19:00,24.2,17.7,30.32,North,0,0.0,0.0,76,0.00,CLR,SKC,0.00,WeatherDisplay:10.37,2013-03-01 22:19:00,
2013-03-01 16:24:00,24.2,17.7,30.32,North,0,0.0,0.0,76,0.00,CLR,SKC,0.00,WeatherDisplay:10.37,2013-03-01 22:24:00,
2013-03-01 16:29:00,24.2,17.7,30.33,North,0,0.0,0.0,76,0.00,CLR,SKC,0.00,WeatherDisplay:10.37,2013-03-01 22:29:00,
2013-03-01 16:34:00,24.2,17.7,30.33,North,0,0.0,0.0,76,0.00,CLR,SKC,0.00,WeatherDisplay:10.37,2013-03-01 22:34:00,
2013-03-01 16:39:00,24.2,17.7,30.32,North,0,0.0,0.0,76,0.00,CLR,SKC,0.00,WeatherDisplay:10.37,2013-03-01 22:39:00,
2013-03-01 16:44:00,24.2,17.7,30.32,North,0,0.0,0.0,76,0.00,CLR,SKC,0.00,WeatherDisplay:10.37,2013-03-01 22:44:00,
2013-03-01 16:49:00,24.2,17.7,30.33,North,0,0.0,0.0,76,0.00,CLR,SKC,0.00,WeatherDisplay:10.37,2013-03-01 22:49:00,
2013-03-01 16:54:00,24.2,17.7,30.33,North,0,0.0,0.0,76,0.00,CLR,SKC,0.00,WeatherDisplay:10.37,2013-03-01 22:54:00,
2013-03-01 16:59:00,24.2,17.7,30.33,North,0,0.0,0.0,76,0.00,CLR,SKC,0.00,WeatherDisplay:10.37,2013-03-01 22:59:00,
2013-03-01 17:04:00,24.2,17.7,30.24,North,0,0.0,0.0,76,0.00,CLR,SKC,0.00,WeatherDisplay:10.37,2013-03-01 23:04:00,
2013-03-01 17:09:00,24.2,17.7,30.24,North,0,0.0,0.0,76,0.00,CLR,SKC,0.00,WeatherDisplay:10.37,2013-03-01 23:09:00,
2013-03-01 17:14:00,24.2,17.7,30.25,North,0,0.0,0.0,76,0.00,CLR,SKC,0.00,WeatherDisplay:10.37,2013-03-01 23:14:00,
2013-03-01 17:19:00,24.2,17.7,30.25,North,0,0.0,0.0,76,0.00,CLR,SKC,0.00,WeatherDisplay:10.37,2013-03-01 23:19:00,
2013-03-01 17:24:00,24.2,17.7,30.25,North,0,0.0,0.0,76,0.00,CLR,SKC,0.00,WeatherDisplay:10.37,2013-03-01 23:24:00,
2013-03-01 17:29:00,24.2,17.7,30.26,North,0,0.0,0.0,76,0.00,CLR,SKC,0.00,WeatherDisplay:10.37,2013-03-01 23:29:00,
2013-03-01 17:34:00,24.2,17.7,30.26,North,0,0.0,0.0,76,0.00,CLR,SKC,0.00,WeatherDisplay:10.37,2013-03-01 23:34:00,
2013-03-01 17:39:00,24.2,17.7,30.26,North,0,0.0,0.0,76,0.00,CLR,SKC,0.00,WeatherDisplay:10.37,2013-03-01 23:39:00,
2013-03-01 17:44:00,24.2,17.7,30.26,North,0,0.0,0.0,76,0.00,CLR,SKC,0.00,WeatherDisplay:10.37,2013-03-01 23:44:00,
2013-03-01 17:49:00,24.2,17.7,30.26,North,0,0.0,0.0,76,0.00,CLR,SKC,0.00,WeatherDisplay:10.37,2013-03-01 23:49:00,
2013-03-01 18:17:00,24.2,17.7,30.27,North,0,0.0,0.0,76,0.00,CLR,SKC,0.00,WeatherDisplay:10.37,2013-03-02 00:17:00,
2013-03-01 18:40:00,24.2,17.7,30.27,NW,308,0.0,0.0,76,0.00,CLR,SKC,0.00,WeatherDisplay:10.37,2013-03-02 00:40:00,
2013-03-01 18:50:00,24.2,17.7,30.27,NNW,338,0.0,0.0,76,0.00,CLR,SKC,0.00,WeatherDisplay:10.37,2013-03-02 00:50:00,
2013-03-01 19:10:00,24.2,17.7,30.28,NNW,329,0.0,0.0,76,0.00,CLR,SKC,0.00,WeatherDisplay:10.37,2013-03-02 01:10:00,
2013-03-01 19:20:00,24.2,17.7,30.27,NW,308,0.0,0.0,76,0.00,CLR,SKC,0.00,WeatherDisplay:10.37,2013-03-02 01:20:00,
2013-03-01 20:42:00,24.2,17.7,30.29,North,0,0.0,0.0,76,0.00,CLR,SKC,0.00,WeatherDisplay:10.37,2013-03-02 02:42:00,
2013-03-01 21:10:00,24.2,17.7,30.29,NNW,338,0.0,0.0,76,0.00,CLR,SKC,0.00,WeatherDisplay:10.37,2013-03-02 03:10:00,
2013-03-01 21:20:00,24.2,17.7,30.29,NNW,338,0.0,0.0,76,0.00,CLR,SKC,0.00,WeatherDisplay:10.37,2013-03-02 03:20:00,
2013-03-01 21:30:00,24.2,17.7,30.29,NNW,338,0.0,0.0,76,0.00,CLR,SKC,0.00,WeatherDisplay:10.37,2013-03-02 03:30:00,
2013-03-01 21:40:00,24.2,17.7,30.29,NW,308,0.0,0.0,76,0.00,CLR,SKC,0.00,WeatherDisplay:10.37,2013-03-02 03:40:00,
2013-03-01 21:50:00,24.2,17.7,30.29,NW,318,0.0,0.0,76,0.00,CLR,SKC,0.00,WeatherDisplay:10.37,2013-03-02 03:50:00,
2013-03-01 22:10:00,24.2,17.7,30.30,NNW,346,0.0,0.0,76,0.00,CLR,SKC,0.00,WeatherDisplay:10.37,2013-03-02 04:10:00,
2013-03-01 22:20:00,24.2,17.7,30.30,NNW,346,0.0,0.0,76,0.00,CLR,SKC,0.00,WeatherDisplay:10.37,2013-03-02 04:20:00,
2013-03-01 22:30:00,24.2,17.7,30.30,NNW,338,0.0,0.0,76,0.00,CLR,SKC,0.00,WeatherDisplay:10.37,2013-03-02 04:30:00,
2013-03-01 22:40:00,24.2,17.7,30.30,NNW,338,0.0,0.0,76,0.00,CLR,SKC,0.00,WeatherDisplay:10.37,2013-03-02 04:40:00,
2013-03-01 22:49:00,24.2,17.7,30.30,North,354,0.0,0.0,76,0.00,CLR,SKC,0.00,WeatherDisplay:10.37,2013-03-02 04:49:00,
2013-03-01 23:10:00,24.2,17.7,30.31,North,0,0.0,0.0,76,0.00,CLR,SKC,0.00,WeatherDisplay:10.37,2013-03-02 05:10:00,
2013-03-01 23:20:00,24.2,17.7,30.31,North,354,0.0,0.0,76,0.00,CLR,SKC,0.00,WeatherDisplay:10.37,2013-03-02 05:20:00,
2013-03-01 23:40:00,24.2,17.7,30.30,NNW,346,0.0,0.0,76,0.00,CLR,SKC,0.00,WeatherDisplay:10.37,2013-03-02 05:40:00,
2013-03-01 23:50:00,24.2,17.7,30.30,North,354,0.0,0.0,76,0.00,CLR,SKC,0.00,WeatherDisplay:10.37,2013-03-02 05:50:00,